When you browse on this site, cookies collect data to enhance your experience and personalize the content and advertising you see.
Visit our Privacy Policy to learn more. By continuing to use the site, you agree to this use of cookies and data.
  • In Deutschland
  • Länderverzeichnis
  • Für 7 Tage
  • Wassertemperatur
  • Wetterkarte
  • Widgets
  • user-avatar
    Anmelden

    Stündliche Wetter Razdolnoe

    Heute, 25 Februar, Dienstag

    Zeit Temperatur Niederschläge Wind Luftdruck Luftfeuchtigkeit
    00:00 -10°C° 0 mm 6 m/S 749 mmHg 90%
    01:00 -10°C° 0 mm 6 m/S 749 mmHg 90%
    02:00 -11°C° 0 mm 5 m/S 750 mmHg 91%
    03:00 -12°C° 0 mm 5 m/S 750 mmHg 92%
    04:00 -12°C° 0 mm 3 m/S 750 mmHg 94%
    05:00 -12°C° 0 mm 3 m/S 751 mmHg 94%
    06:00 -13°C° 0 mm 3 m/S 751 mmHg 94%
    07:00 -14°C° 0 mm 3 m/S 751 mmHg 94%
    08:00 -12°C° 0 mm 3 m/S 751 mmHg 94%
    09:00 -10°C° 0 mm 3 m/S 751 mmHg 93%
    10:00 -8°C° 0 mm 3 m/S 752 mmHg 92%
    11:00 -8°C° 0 mm 3 m/S 752 mmHg 92%
    12:00 -7°C° 0 mm 3 m/S 752 mmHg 92%
    13:00 -6°C° 0 mm 3 m/S 752 mmHg 93%
    14:00 -6°C° 0 mm 3 m/S 752 mmHg 93%
    15:00 -8°C° 0 mm 4 m/S 752 mmHg 93%
    16:00 -8°C° 0 mm 4 m/S 752 mmHg 93%
    17:00 -9°C° 0 mm 4 m/S 752 mmHg 94%
    18:00 -10°C° 0 mm 4 m/S 751 mmHg 94%
    19:00 -11°C° 0 mm 4 m/S 751 mmHg 95%
    20:00 -11°C° 0 mm 4 m/S 751 mmHg 95%
    21:00 -12°C° 0 mm 4 m/S 751 mmHg 95%
    22:00 -12°C° 0 mm 4 m/S 751 mmHg 95%
    23:00 -12°C° 0 mm 4 m/S 750 mmHg 95%

    Morgen, 26 Februar, Mittwoch

    Zeit Temperatur Niederschläge Wind Luftdruck Luftfeuchtigkeit
    00:00 -12°C° 0 mm 4 m/S 750 mmHg 95%
    01:00 -12°C° 0 mm 4 m/S 749 mmHg 95%
    02:00 -11°C° 0 mm 4 m/S 748 mmHg 95%
    03:00 -11°C° 0 mm 4 m/S 748 mmHg 94%
    04:00 -10°C° 0 mm 4 m/S 747 mmHg 94%
    05:00 -10°C° 0 mm 4 m/S 746 mmHg 94%
    06:00 -9°C° 0 mm 4 m/S 746 mmHg 94%
    07:00 -9°C° 0 mm 4 m/S 745 mmHg 94%
    08:00 -8°C° 0 mm 5 m/S 744 mmHg 94%
    09:00 -8°C° 0 mm 5 m/S 743 mmHg 94%
    10:00 -7°C° 0 mm 5 m/S 742 mmHg 94%
    11:00 -6°C° 0.2 mm 6 m/S 741 mmHg 95%
    12:00 -5°C° 0.2 mm 6 m/S 740 mmHg 95%
    13:00 -3°C° 0.2 mm 7 m/S 739 mmHg 95%
    14:00 -4°C° 0.7 mm 6 m/S 739 mmHg 96%
    15:00 -4°C° 0.7 mm 5 m/S 738 mmHg 96%
    16:00 -5°C° 0.7 mm 5 m/S 737 mmHg 96%
    17:00 -4°C° 0.8 mm 4 m/S 737 mmHg 96%
    18:00 -4°C° 0.8 mm 4 m/S 736 mmHg 97%
    19:00 -4°C° 0.8 mm 3 m/S 736 mmHg 97%
    20:00 -4°C° 0.8 mm 3 m/S 735 mmHg 97%
    21:00 -5°C° 0.8 mm 3 m/S 735 mmHg 96%
    22:00 -5°C° 0.8 mm 4 m/S 735 mmHg 96%
    23:00 -5°C° 0.3 mm 4 m/S 735 mmHg 96%

    übermorgen, 27 Februar, Donnerstag

    Zeit Temperatur Niederschläge Wind Luftdruck Luftfeuchtigkeit
    00:00 -5°C° 0.3 mm 4 m/S 735 mmHg 96%
    01:00 -5°C° 0.3 mm 4 m/S 736 mmHg 96%
    02:00 -6°C° 0.3 mm 5 m/S 736 mmHg 94%
    03:00 -6°C° 0.3 mm 6 m/S 737 mmHg 93%
    04:00 -7°C° 0.3 mm 7 m/S 738 mmHg 92%
    05:00 -7°C° 0 mm 7 m/S 739 mmHg 91%
    06:00 -7°C° 0 mm 7 m/S 740 mmHg 90%
    07:00 -7°C° 0 mm 7 m/S 741 mmHg 89%
    08:00 -6°C° 0 mm 7 m/S 742 mmHg 87%
    09:00 -6°C° 0 mm 7 m/S 743 mmHg 86%
    10:00 -6°C° 0 mm 7 m/S 744 mmHg 84%
    11:00 -4°C° 0 mm 7 m/S 745 mmHg 83%
    12:00 -4°C° 0 mm 6 m/S 746 mmHg 81%
    13:00 -4°C° 0 mm 6 m/S 746 mmHg 80%
    14:00 -4°C° 0 mm 5 m/S 747 mmHg 81%
    15:00 -4°C° 0 mm 5 m/S 748 mmHg 81%
    16:00 -4°C° 0 mm 4 m/S 748 mmHg 81%
    17:00 -3°C° 0 mm 4 m/S 749 mmHg 84%
    18:00 -3°C° 0 mm 4 m/S 749 mmHg 86%
    19:00 -3°C° 0 mm 4 m/S 749 mmHg 88%
    20:00 -3°C° 0.1 mm 4 m/S 750 mmHg 88%
    21:00 -4°C° 0.1 mm 4 m/S 750 mmHg 88%
    22:00 -4°C° 0.1 mm 4 m/S 751 mmHg 88%
    23:00 -5°C° 0 mm 3 m/S 751 mmHg 89%

    28 Februar, Freitag

    Zeit Temperatur Niederschläge Wind Luftdruck Luftfeuchtigkeit
    00:00 -5°C° 0 mm 3 m/S 751 mmHg 90%
    01:00 -5°C° 0 mm 2 m/S 752 mmHg 91%
    02:00 -5°C° 0 mm 3 m/S 752 mmHg 91%
    03:00 -5°C° 0 mm 3 m/S 752 mmHg 91%
    04:00 -4°C° 0 mm 3 m/S 752 mmHg 92%
    05:00 -3°C° 0.2 mm 4 m/S 752 mmHg 93%
    06:00 -3°C° 0.2 mm 4 m/S 752 mmHg 95%
    07:00 -2°C° 0.2 mm 5 m/S 752 mmHg 97%
    08:00 -2°C° 0.5 mm 5 m/S 752 mmHg 97%
    09:00 -2°C° 0.5 mm 5 m/S 752 mmHg 98%
    10:00 -2°C° 0.5 mm 6 m/S 752 mmHg 98%
    11:00 -1°C° 0.1 mm 5 m/S 752 mmHg 98%
    12:00 -1°C° 0.1 mm 5 m/S 753 mmHg 98%
    13:00 0°C° 0.1 mm 5 m/S 753 mmHg 98%
    14:00 0°C° 0 mm 5 m/S 753 mmHg 96%
    15:00 0°C° 0 mm 5 m/S 753 mmHg 95%
    16:00 0°C° 0 mm 4 m/S 754 mmHg 93%
    17:00 -1°C° 0 mm 4 m/S 754 mmHg 92%
    18:00 -1°C° 0 mm 4 m/S 754 mmHg 91%
    19:00 -2°C° 0 mm 4 m/S 755 mmHg 90%
    20:00 -2°C° 0 mm 4 m/S 755 mmHg 90%
    21:00 -2°C° 0 mm 4 m/S 755 mmHg 90%
    22:00 -3°C° 0 mm 4 m/S 755 mmHg 90%
    23:00 -3°C° 0 mm 4 m/S 755 mmHg 90%

    29 Februar, Samstag

    Zeit Temperatur Niederschläge Wind Luftdruck Luftfeuchtigkeit
    00:00 -2°C° 0 mm 3 m/S 755 mmHg 90%
    01:00 -4°C° 0 mm 3 m/S 755 mmHg 90%
    02:00 -4°C° 0 mm 4 m/S 755 mmHg 89%
    03:00 -4°C° 0 mm 4 m/S 755 mmHg 89%
    04:00 -5°C° 0 mm 4 m/S 755 mmHg 88%
    05:00 -6°C° 0 mm 5 m/S 755 mmHg 86%
    06:00 -5°C° 0 mm 5 m/S 755 mmHg 85%
    07:00 -5°C° 0 mm 5 m/S 755 mmHg 83%
    08:00 -5°C° 0 mm 6 m/S 754 mmHg 81%
    09:00 -6°C° 0 mm 7 m/S 754 mmHg 78%
    10:00 -4°C° 0 mm 7 m/S 754 mmHg 76%
    11:00 -4°C° 0 mm 7 m/S 754 mmHg 76%
    12:00 -4°C° 0 mm 7 m/S 754 mmHg 76%
    13:00 -3°C° 0 mm 7 m/S 754 mmHg 76%
    14:00 -4°C° 0 mm 7 m/S 753 mmHg 77%
    15:00 -4°C° 0 mm 6 m/S 753 mmHg 77%
    16:00 -5°C° 0 mm 6 m/S 753 mmHg 78%
    17:00 -6°C° 0 mm 6 m/S 753 mmHg 80%
    18:00 -6°C° 0 mm 6 m/S 752 mmHg 81%
    19:00 -8°C° 0 mm 7 m/S 752 mmHg 83%
    20:00 -8°C° 0 mm 6 m/S 752 mmHg 85%
    21:00 -8°C° 0 mm 6 m/S 752 mmHg 87%
    22:00 -8°C° 0 mm 6 m/S 751 mmHg 89%
    23:00 -8°C° 0 mm 6 m/S 751 mmHg 90%

    1 März, Sonntag

    Zeit Temperatur Niederschläge Wind Luftdruck Luftfeuchtigkeit
    00:00 -7°C° 0 mm 5 m/S 751 mmHg 91%
    01:00 -7°C° 0 mm 5 m/S 751 mmHg 92%
    02:00 -6°C° 0 mm 5 m/S 751 mmHg 92%
    03:00 -6°C° 0 mm 5 m/S 751 mmHg 92%
    04:00 -5°C° 0 mm 4 m/S 751 mmHg 92%
    05:00 -7°C° 0 mm 4 m/S 751 mmHg 93%
    06:00 -8°C° 0 mm 4 m/S 752 mmHg 93%
    07:00 -8°C° 0 mm 3 m/S 752 mmHg 94%
    08:00 -7°C° 0 mm 3 m/S 752 mmHg 94%
    09:00 -6°C° 0 mm 3 m/S 752 mmHg 93%
    10:00 -6°C° 0 mm 3 m/S 752 mmHg 93%
    11:00 -5°C° 0 mm 3 m/S 752 mmHg 94%
    12:00 -4°C° 0 mm 3 m/S 752 mmHg 95%
    13:00 -2°C° 0 mm 3 m/S 753 mmHg 95%
    14:00 -2°C° 0 mm 3 m/S 753 mmHg 95%
    15:00 -2°C° 0 mm 3 m/S 753 mmHg 95%
    16:00 -2°C° 0 mm 3 m/S 753 mmHg 95%
    17:00 -2°C° 0 mm 2 m/S 753 mmHg 94%
    18:00 -2°C° 0 mm 2 m/S 753 mmHg 94%
    19:00 -3°C° 0 mm 2 m/S 753 mmHg 94%
    20:00 -3°C° 0 mm 2 m/S 753 mmHg 94%
    21:00 -1°C° 0 mm 1 m/S 753 mmHg 94%
    22:00 -1°C° 0 mm 1 m/S 753 mmHg 94%
    23:00 -1°C° 0 mm 1 m/S 753 mmHg 95%
    Mehr zeigen